Time,TemperatureF,DewpointF,PressureIn,WindDirection,WindDirectionDegrees,WindSpeedMPH,WindSpeedGustMPH,Humidity,HourlyPrecipIn,Conditions,Clouds,dailyrainin,SoftwareType,DateUTC
2013-02-03 00:05:00,61.5,50.9,29.77,East,90,0.0,0.0,68,0.00,,---,0.00,VWS V13.01,2013-02-03 05:05:00,
2013-02-03 00:10:00,61.5,50.9,29.76,East,90,0.0,0.0,68,0.00,,---,0.00,VWS V13.01,2013-02-03 05:10:00,
2013-02-03 00:15:00,61.5,50.9,29.77,East,90,0.0,0.0,68,0.00,,---,0.00,VWS V13.01,2013-02-03 05:15:00,
2013-02-03 00:20:00,61.3,50.7,29.76,East,90,0.0,0.0,68,0.00,,---,0.00,VWS V13.01,2013-02-03 05:20:00,
2013-02-03 00:30:00,61.3,50.7,29.76,East,90,0.0,0.0,68,0.00,,---,0.00,VWS V13.01,2013-02-03 05:30:00,
2013-02-03 00:40:00,61.0,50.4,29.76,East,90,0.0,20.1,68,0.00,,---,0.00,VWS V13.01,2013-02-03 05:40:00,
2013-02-03 00:50:00,61.0,50.4,29.76,East,90,0.0,0.0,68,0.00,,---,0.00,VWS V13.01,2013-02-03 05:50:00,
2013-02-03 01:00:00,60.6,50.4,29.75,East,90,0.0,11.0,69,0.00,,---,0.00,VWS V13.01,2013-02-03 06:00:00,
2013-02-03 01:10:00,60.6,50.4,29.75,East,90,0.0,13.6,69,0.00,,---,0.00,VWS V13.01,2013-02-03 06:10:00,
2013-02-03 01:20:00,60.4,50.2,29.74,East,90,0.0,0.0,69,0.00,,---,0.00,VWS V13.01,2013-02-03 06:20:00,
2013-02-03 01:25:00,60.4,50.2,29.74,East,90,0.0,0.0,69,0.00,,---,0.00,VWS V13.01,2013-02-03 06:25:00,
2013-02-03 01:35:00,60.1,49.9,29.74,East,90,0.0,0.0,69,0.00,,---,0.00,VWS V13.01,2013-02-03 06:35:00,
2013-02-03 01:40:00,60.1,50.3,29.74,East,90,0.0,9.6,70,0.00,,---,0.00,VWS V13.01,2013-02-03 06:40:00,
2013-02-03 01:50:00,60.1,50.3,29.74,East,90,0.0,0.0,70,0.00,,---,0.00,VWS V13.01,2013-02-03 06:50:00,
2013-02-03 02:00:00,59.9,50.1,29.74,East,90,0.0,0.0,70,0.00,,---,0.00,VWS V13.01,2013-02-03 07:00:00,
2013-02-03 02:10:00,59.7,49.9,29.73,East,90,0.0,0.0,70,0.00,,---,0.00,VWS V13.01,2013-02-03 07:10:00,
2013-02-03 02:15:00,59.7,49.9,29.73,East,90,0.0,0.0,70,0.00,,---,0.00,VWS V13.01,2013-02-03 07:15:00,
2013-02-03 02:20:00,59.5,49.8,29.73,East,90,0.0,0.0,70,0.00,,---,0.00,VWS V13.01,2013-02-03 07:20:00,
2013-02-03 02:30:00,59.4,49.6,29.73,East,90,0.0,0.0,70,0.00,,---,0.00,VWS V13.01,2013-02-03 07:30:00,
2013-02-03 02:35:00,59.4,49.6,29.73,East,90,0.0,0.0,70,0.00,,---,0.00,VWS V13.01,2013-02-03 07:35:00,
2013-02-03 02:45:00,59.2,49.4,29.73,East,90,0.0,0.0,70,0.00,,---,0.00,VWS V13.01,2013-02-03 07:45:00,
2013-02-03 02:55:00,58.8,49.5,29.73,East,90,0.0,0.0,71,0.00,,---,0.00,VWS V13.01,2013-02-03 07:55:00,
2013-02-03 03:00:00,58.8,49.5,29.73,NNE,22,0.0,0.0,71,0.00,,---,0.00,VWS V13.01,2013-02-03 08:00:00,
2013-02-03 03:10:00,59.2,50.2,29.73,North,0,9.2,9.2,72,0.00,,---,0.00,VWS V13.01,2013-02-03 08:10:00,
2013-02-03 03:20:00,59.2,50.2,29.73,North,0,14.1,14.1,72,0.00,,---,0.00,VWS V13.01,2013-02-03 08:20:00,
2013-02-03 03:25:00,59.2,50.2,29.73,NNW,338,0.0,14.1,72,0.00,,---,0.00,VWS V13.01,2013-02-03 08:25:00,
2013-02-03 03:30:00,59.2,50.2,29.73,NNW,338,0.0,0.0,72,0.00,,---,0.00,VWS V13.01,2013-02-03 08:30:00,
2013-02-03 03:40:00,59.0,50.0,29.73,NNW,338,15.0,15.0,72,0.00,,---,0.00,VWS V13.01,2013-02-03 08:40:00,
2013-02-03 03:50:00,59.0,50.0,29.73,NNW,338,0.0,0.0,72,0.00,,---,0.00,VWS V13.01,2013-02-03 08:50:00,
2013-02-03 03:55:00,58.8,49.8,29.73,NNW,338,0.0,0.0,72,0.00,,---,0.00,VWS V13.01,2013-02-03 08:55:00,
2013-02-03 04:00:00,58.8,49.8,29.73,NNW,338,0.0,0.0,72,0.00,,---,0.00,VWS V13.01,2013-02-03 09:00:00,
2013-02-03 04:10:00,58.8,50.2,29.73,NNW,338,12.3,12.3,73,0.00,,---,0.00,VWS V13.01,2013-02-03 09:10:00,
2013-02-03 04:20:00,58.8,50.2,29.73,NNW,338,0.0,12.3,73,0.00,,---,0.00,VWS V13.01,2013-02-03 09:20:00,
2013-02-03 04:30:00,58.8,50.2,29.73,NNW,338,0.0,0.0,73,0.00,,---,0.00,VWS V13.01,2013-02-03 09:30:00,
2013-02-03 04:35:00,58.8,50.2,29.73,NNW,338,0.0,0.0,73,0.00,,---,0.00,VWS V13.01,2013-02-03 09:35:00,
2013-02-03 04:45:00,58.8,50.2,29.73,NNW,338,0.0,0.0,73,0.00,,---,0.00,VWS V13.01,2013-02-03 09:45:00,
2013-02-03 04:50:00,58.8,50.2,29.73,NNW,338,0.0,0.0,73,0.00,,---,0.00,VWS V13.01,2013-02-03 09:50:00,
2013-02-03 04:55:00,58.8,50.2,29.73,NNW,338,0.0,7.4,73,0.00,,---,0.00,VWS V13.01,2013-02-03 09:55:00,
2013-02-03 05:00:00,58.8,50.2,29.73,NNW,338,0.0,0.0,73,0.00,,---,0.00,VWS V13.01,2013-02-03 10:00:00,
2013-02-03 05:10:00,58.8,50.6,29.74,NNW,338,0.0,0.0,74,0.00,,---,0.00,VWS V13.01,2013-02-03 10:10:00,
2013-02-03 05:20:00,58.8,50.9,29.74,NNW,338,0.0,0.0,75,0.00,,---,0.00,VWS V13.01,2013-02-03 10:20:00,
2013-02-03 05:30:00,59.0,50.7,29.74,NNW,338,1.6,1.6,74,0.00,,---,0.00,VWS V13.01,2013-02-03 10:30:00,
2013-02-03 05:40:00,59.2,50.9,29.75,WNW,292,0.0,0.0,74,0.00,,---,0.00,VWS V13.01,2013-02-03 10:40:00,
2013-02-03 05:45:00,59.4,51.1,29.75,WNW,292,0.0,0.0,74,0.00,,---,0.00,VWS V13.01,2013-02-03 10:45:00,
2013-02-03 05:55:00,59.2,50.5,29.75,NNW,338,2.9,13.6,73,0.00,,---,0.00,VWS V13.01,2013-02-03 10:55:00,
2013-02-03 06:00:00,59.2,50.5,29.75,NNW,338,0.0,2.9,73,0.00,,---,0.00,VWS V13.01,2013-02-03 11:00:00,
2013-02-03 06:10:00,58.8,49.8,29.75,NNW,338,2.2,2.2,72,0.00,,---,0.00,VWS V13.01,2013-02-03 11:10:00,
2013-02-03 06:15:00,58.8,49.8,29.75,North,0,2.5,2.5,72,0.00,,---,0.00,VWS V13.01,2013-02-03 11:15:00,
2013-02-03 06:20:00,58.8,49.8,29.76,NNW,338,0.7,2.5,72,0.00,,---,0.00,VWS V13.01,2013-02-03 11:20:00,
2013-02-03 06:30:00,58.8,49.8,29.76,NNW,338,0.9,0.9,72,0.00,,---,0.00,VWS V13.01,2013-02-03 11:30:00,
2013-02-03 06:40:00,58.8,49.8,29.76,NNW,338,0.0,0.0,72,0.00,,---,0.00,VWS V13.01,2013-02-03 11:40:00,
2013-02-03 06:50:00,58.8,49.8,29.76,NW,315,0.0,2.9,72,0.00,,---,0.00,VWS V13.01,2013-02-03 11:50:00,
2013-02-03 07:00:00,58.6,49.3,29.77,NW,315,0.7,2.0,71,0.00,,---,0.00,VWS V13.01,2013-02-03 12:00:00,
2013-02-03 07:05:00,58.6,49.3,29.77,NNW,338,0.0,0.7,71,0.00,,---,0.00,VWS V13.01,2013-02-03 12:05:00,
2013-02-03 07:10:00,58.5,49.1,29.78,NNW,338,0.0,0.0,71,0.00,,---,0.00,VWS V13.01,2013-02-03 12:10:00,
2013-02-03 07:20:00,58.3,48.9,29.78,NNW,338,0.0,0.0,71,0.00,,---,0.00,VWS V13.01,2013-02-03 12:20:00,
2013-02-03 07:25:00,58.3,48.9,29.78,NW,315,0.0,2.7,71,0.00,,---,0.00,VWS V13.01,2013-02-03 12:25:00,
2013-02-03 07:35:00,58.8,49.5,29.78,NNW,338,0.0,0.0,71,0.00,,---,0.00,VWS V13.01,2013-02-03 12:35:00,
2013-02-03 07:45:00,58.8,49.5,29.78,NNW,338,0.0,0.0,71,0.00,,---,0.00,VWS V13.01,2013-02-03 12:45:00,
2013-02-03 07:55:00,59.5,50.1,29.78,NW,315,0.2,0.4,71,0.00,,---,0.00,VWS V13.01,2013-02-03 12:55:00,
2013-02-03 08:05:00,60.1,50.3,29.79,NNW,338,2.0,2.0,70,0.00,,---,0.00,VWS V13.01,2013-02-03 13:05:00,
2013-02-03 08:15:00,60.4,50.2,29.79,NNW,338,3.1,3.1,69,0.00,,---,0.00,VWS V13.01,2013-02-03 13:15:00,
2013-02-03 08:25:00,61.0,50.4,29.80,NNW,338,2.9,2.9,68,0.00,,---,0.00,VWS V13.01,2013-02-03 13:25:00,
2013-02-03 08:35:00,61.9,50.0,29.80,North,0,0.0,3.1,65,0.00,,---,0.00,VWS V13.01,2013-02-03 13:35:00,
2013-02-03 08:45:00,62.8,50.0,29.81,NW,315,1.3,2.7,63,0.00,,---,0.00,VWS V13.01,2013-02-03 13:45:00,
2013-02-03 08:50:00,63.3,49.2,29.81,NNW,338,0.0,5.1,60,0.00,,---,0.00,VWS V13.01,2013-02-03 13:50:00,
2013-02-03 09:00:00,64.0,49.4,29.81,North,0,5.4,5.4,59,0.00,,---,0.00,VWS V13.01,2013-02-03 14:00:00,
2013-02-03 09:10:00,65.1,49.5,29.81,NNW,338,4.3,11.9,57,0.00,,---,0.00,VWS V13.01,2013-02-03 14:10:00,
2013-02-03 09:20:00,65.5,49.4,29.81,North,0,6.9,6.9,56,0.00,,---,0.00,VWS V13.01,2013-02-03 14:20:00,
2013-02-03 09:30:00,66.4,49.2,29.81,NNW,338,4.5,9.0,54,0.00,,---,0.00,VWS V13.01,2013-02-03 14:30:00,
2013-02-03 09:40:00,67.6,49.9,29.81,WSW,248,0.0,5.8,53,0.00,,---,0.00,VWS V13.01,2013-02-03 14:40:00,
2013-02-03 09:45:00,67.8,50.6,29.82,WSW,248,0.0,0.0,54,0.00,,---,0.00,VWS V13.01,2013-02-03 14:45:00,
2013-02-03 09:55:00,68.7,50.9,29.82,NNE,22,1.3,3.6,53,0.00,,---,0.00,VWS V13.01,2013-02-03 14:55:00,
2013-02-03 10:00:00,68.9,51.1,29.82,NNW,338,9.2,9.2,53,0.00,,---,0.00,VWS V13.01,2013-02-03 15:00:00,
2013-02-03 10:10:00,69.6,51.8,29.82,North,0,5.6,5.6,53,0.00,,---,0.00,VWS V13.01,2013-02-03 15:10:00,
2013-02-03 10:20:00,69.8,51.9,29.81,NNW,338,2.5,4.3,53,0.00,,---,0.00,VWS V13.01,2013-02-03 15:20:00,
2013-02-03 10:25:00,70.2,52.2,29.81,NNE,22,2.7,5.6,53,0.00,,---,0.00,VWS V13.01,2013-02-03 15:25:00,
2013-02-03 10:35:00,70.7,52.2,29.81,North,0,5.1,5.1,52,0.00,,---,0.00,VWS V13.01,2013-02-03 15:35:00,
2013-02-03 10:45:00,71.2,52.7,29.81,NNW,338,1.3,6.9,52,0.00,,---,0.00,VWS V13.01,2013-02-03 15:45:00,
2013-02-03 10:55:00,71.8,52.2,29.81,North,0,7.6,7.6,50,0.00,,---,0.00,VWS V13.01,2013-02-03 15:55:00,
2013-02-03 11:05:00,72.0,52.3,29.80,NNW,338,7.6,8.5,50,0.00,,---,0.00,VWS V13.01,2013-02-03 16:05:00,
2013-02-03 11:15:00,72.5,52.8,29.80,ENE,68,3.1,6.3,50,0.00,,---,0.00,VWS V13.01,2013-02-03 16:15:00,
2013-02-03 11:20:00,73.0,52.8,29.80,North,0,7.4,7.4,49,0.00,,---,0.00,VWS V13.01,2013-02-03 16:20:00,
2013-02-03 11:30:00,73.2,52.9,29.79,North,0,2.7,3.1,49,0.00,,---,0.00,VWS V13.01,2013-02-03 16:30:00,
2013-02-03 11:40:00,73.9,52.5,29.78,NNW,338,3.1,7.4,47,0.00,,---,0.00,VWS V13.01,2013-02-03 16:40:00,
2013-02-03 11:50:00,74.1,53.2,29.78,North,0,1.3,4.5,48,0.00,,---,0.00,VWS V13.01,2013-02-03 16:50:00,
2013-02-03 12:00:00,74.3,52.2,29.78,WNW,292,1.6,7.2,46,0.00,,---,0.00,VWS V13.01,2013-02-03 17:00:00,
2013-02-03 12:10:00,74.5,51.2,29.78,NW,315,4.7,7.4,44,0.00,,---,0.00,VWS V13.01,2013-02-03 17:10:00,
2013-02-03 12:20:00,74.8,51.5,29.77,WNW,292,2.9,2.9,44,0.00,,---,0.00,VWS V13.01,2013-02-03 17:20:00,
2013-02-03 12:30:00,75.2,50.6,29.77,North,0,8.3,8.3,42,0.00,,---,0.00,VWS V13.01,2013-02-03 17:30:00,
2013-02-03 12:40:00,75.7,50.4,29.76,NNE,22,3.6,3.6,41,0.00,,---,0.00,VWS V13.01,2013-02-03 17:40:00,
2013-02-03 12:45:00,75.9,50.5,29.76,NW,315,6.5,6.5,41,0.00,,---,0.00,VWS V13.01,2013-02-03 17:45:00,
2013-02-03 12:55:00,76.3,50.2,29.75,NNE,22,8.7,8.7,40,0.00,,---,0.00,VWS V13.01,2013-02-03 17:55:00,
2013-02-03 13:05:00,75.9,50.5,29.75,NNW,338,1.6,8.3,41,0.00,,---,0.00,VWS V13.01,2013-02-03 18:05:00,
2013-02-03 13:10:00,76.3,50.9,29.75,North,0,2.9,2.9,41,0.00,,---,0.00,VWS V13.01,2013-02-03 18:10:00,
2013-02-03 13:20:00,76.8,50.7,29.74,North,0,3.8,8.5,40,0.00,,---,0.00,VWS V13.01,2013-02-03 18:20:00,
2013-02-03 13:30:00,75.9,49.9,29.73,East,90,0.0,11.0,40,0.00,,---,0.00,VWS V13.01,2013-02-03 18:30:00,
2013-02-03 13:40:00,76.1,50.7,29.73,NNW,338,0.0,6.9,41,0.00,,---,0.00,VWS V13.01,2013-02-03 18:40:00,
2013-02-03 13:45:00,76.3,50.2,29.73,NNE,22,6.9,6.9,40,0.00,,---,0.00,VWS V13.01,2013-02-03 18:45:00,
2013-02-03 13:55:00,76.3,48.1,29.73,NW,315,6.7,9.4,37,0.00,,---,0.00,VWS V13.01,2013-02-03 18:55:00,
2013-02-03 14:00:00,76.3,48.1,29.73,WSW,248,6.7,10.3,37,0.00,,---,0.00,VWS V13.01,2013-02-03 19:00:00,
2013-02-03 14:10:00,76.6,47.7,29.72,WSW,248,6.0,6.0,36,0.00,,---,0.00,VWS V13.01,2013-02-03 19:10:00,
2013-02-03 14:15:00,76.6,47.7,29.72,WSW,248,10.5,10.5,36,0.00,,---,0.00,VWS V13.01,2013-02-03 19:15:00,
2013-02-03 14:25:00,76.6,47.0,29.72,WSW,248,3.4,6.0,35,0.00,,---,0.00,VWS V13.01,2013-02-03 19:25:00,
2013-02-03 14:35:00,76.6,47.0,29.72,WSW,248,9.0,9.0,35,0.00,,---,0.00,VWS V13.01,2013-02-03 19:35:00,
2013-02-03 14:40:00,76.6,47.0,29.71,WSW,248,3.6,9.0,35,0.00,,---,0.00,VWS V13.01,2013-02-03 19:40:00,
2013-02-03 14:50:00,75.2,47.9,29.72,WSW,248,15.7,15.7,38,0.00,,---,0.00,VWS V13.01,2013-02-03 19:50:00,
2013-02-03 14:55:00,75.0,47.7,29.71,ENE,68,7.2,15.7,38,0.00,,---,0.00,VWS V13.01,2013-02-03 19:55:00,
2013-02-03 15:05:00,74.1,48.3,29.71,WSW,248,6.5,12.5,40,0.00,,---,0.00,VWS V13.01,2013-02-03 20:05:00,
2013-02-03 15:10:00,73.8,48.0,29.72,WSW,248,6.7,10.7,40,0.00,,---,0.00,VWS V13.01,2013-02-03 20:10:00,
2013-02-03 15:20:00,73.6,48.5,29.72,WSW,248,9.6,9.6,41,0.00,,---,0.00,VWS V13.01,2013-02-03 20:20:00,
2013-02-03 15:25:00,73.6,48.5,29.72,WSW,248,5.8,9.6,41,0.00,,---,0.00,VWS V13.01,2013-02-03 20:25:00,
2013-02-03 15:35:00,73.2,48.1,29.72,WSW,248,5.1,5.1,41,0.00,,---,0.00,VWS V13.01,2013-02-03 20:35:00,
2013-02-03 15:40:00,73.2,48.1,29.72,WSW,248,3.8,5.1,41,0.00,,---,0.00,VWS V13.01,2013-02-03 20:40:00,
2013-02-03 15:50:00,73.0,48.0,29.72,WSW,248,12.5,12.5,41,0.00,,---,0.00,VWS V13.01,2013-02-03 20:50:00,
2013-02-03 16:00:00,72.7,47.7,29.72,WSW,248,5.4,7.2,41,0.00,,---,0.00,VWS V13.01,2013-02-03 21:00:00,
2013-02-03 16:10:00,72.3,47.3,29.72,NE,45,7.2,8.7,41,0.00,,---,0.00,VWS V13.01,2013-02-03 21:10:00,
2013-02-03 16:15:00,72.3,47.3,29.72,WSW,248,7.8,7.8,41,0.00,,---,0.00,VWS V13.01,2013-02-03 21:15:00,
2013-02-03 16:25:00,71.4,45.9,29.72,ENE,68,4.3,8.7,40,0.00,,---,0.00,VWS V13.01,2013-02-03 21:25:00,
2013-02-03 16:35:00,71.2,45.7,29.73,ESE,112,5.6,8.7,40,0.00,,---,0.00,VWS V13.01,2013-02-03 21:35:00,
2013-02-03 16:40:00,71.2,45.7,29.73,WSW,248,4.7,5.6,40,0.00,,---,0.00,VWS V13.01,2013-02-03 21:40:00,
2013-02-03 16:50:00,70.9,45.4,29.73,ENE,68,3.6,9.2,40,0.00,,---,0.00,VWS V13.01,2013-02-03 21:50:00,
2013-02-03 17:00:00,70.5,45.1,29.73,WSW,248,0.4,4.3,40,0.00,,---,0.00,VWS V13.01,2013-02-03 22:00:00,
2013-02-03 17:05:00,70.3,44.2,29.73,WSW,248,5.4,8.1,39,0.00,,---,0.00,VWS V13.01,2013-02-03 22:05:00,
2013-02-03 17:15:00,70.3,44.2,29.73,WSW,248,5.8,5.8,39,0.00,,---,0.00,VWS V13.01,2013-02-03 22:15:00,
2013-02-03 17:20:00,70.3,44.2,29.73,WSW,248,6.3,6.3,39,0.00,,---,0.00,VWS V13.01,2013-02-03 22:20:00,
2013-02-03 17:30:00,70.0,44.6,29.73,WSW,248,2.0,7.4,40,0.00,,---,0.00,VWS V13.01,2013-02-03 22:30:00,
2013-02-03 17:40:00,70.0,43.9,29.73,North,0,5.1,5.1,39,0.00,,---,0.00,VWS V13.01,2013-02-03 22:40:00,
2013-02-03 17:45:00,69.8,43.8,29.73,North,0,5.1,5.1,39,0.00,,---,0.00,VWS V13.01,2013-02-03 22:45:00,
2013-02-03 17:55:00,69.4,42.8,29.73,NE,45,0.2,1.1,38,0.00,,---,0.00,VWS V13.01,2013-02-03 22:55:00,
2013-02-03 18:05:00,68.9,43.0,29.73,North,0,3.6,3.6,39,0.00,,---,0.00,VWS V13.01,2013-02-03 23:05:00,
2013-02-03 18:15:00,68.4,42.5,29.73,NNE,22,2.7,15.7,39,0.00,,---,0.00,VWS V13.01,2013-02-03 23:15:00,
2013-02-03 18:25:00,67.8,42.0,29.73,NNE,22,21.0,21.0,39,0.00,,---,0.00,VWS V13.01,2013-02-03 23:25:00,
2013-02-03 18:35:00,67.6,41.8,29.73,NNE,22,0.9,0.9,39,0.00,,---,0.00,VWS V13.01,2013-02-03 23:35:00,
2013-02-03 18:45:00,67.1,42.6,29.73,NNE,22,18.8,18.8,41,0.00,,---,0.00,VWS V13.01,2013-02-03 23:45:00,
2013-02-03 18:50:00,67.1,42.6,29.73,NNE,22,18.8,18.8,41,0.00,,---,0.00,VWS V13.01,2013-02-03 23:50:00,
2013-02-03 19:00:00,66.6,43.4,29.73,NNE,22,15.7,23.0,43,0.00,,---,0.00,VWS V13.01,2013-02-04 00:00:00,
2013-02-03 19:10:00,66.0,43.5,29.73,NNE,22,19.7,20.8,44,0.00,,---,0.00,VWS V13.01,2013-02-04 00:10:00,
2013-02-03 19:20:00,65.5,43.6,29.73,NNE,22,15.9,18.1,45,0.00,,---,0.00,VWS V13.01,2013-02-04 00:20:00,
2013-02-03 19:25:00,65.3,43.4,29.73,NNE,22,16.8,16.8,45,0.00,,---,0.00,VWS V13.01,2013-02-04 00:25:00,
2013-02-03 19:30:00,64.9,43.7,29.73,NNE,22,15.4,16.8,46,0.00,,---,0.00,VWS V13.01,2013-02-04 00:30:00,
2013-02-03 19:40:00,64.2,43.6,29.74,NNE,22,12.1,12.1,47,0.00,,---,0.00,VWS V13.01,2013-02-04 00:40:00,
2013-02-03 19:50:00,64.0,44.0,29.74,NNE,22,14.3,14.5,48,0.00,,---,0.00,VWS V13.01,2013-02-04 00:50:00,
2013-02-03 19:55:00,63.7,43.6,29.74,NNE,22,12.1,14.3,48,0.00,,---,0.00,VWS V13.01,2013-02-04 00:55:00,
2013-02-03 20:05:00,63.3,43.8,29.74,NNE,22,17.2,17.2,49,0.00,,---,0.00,VWS V13.01,2013-02-04 01:05:00,
2013-02-03 20:15:00,62.8,43.4,29.75,NNE,22,11.6,15.2,49,0.00,,---,0.00,VWS V13.01,2013-02-04 01:15:00,
2013-02-03 20:25:00,62.2,43.4,29.75,NNE,22,11.4,11.4,50,0.00,,---,0.00,VWS V13.01,2013-02-04 01:25:00,
2013-02-03 20:35:00,62.1,43.2,29.75,NNE,22,0.0,11.4,50,0.00,,---,0.00,VWS V13.01,2013-02-04 01:35:00,
2013-02-03 20:40:00,61.9,43.6,29.75,NNE,22,12.3,12.3,51,0.00,,---,0.00,VWS V13.01,2013-02-04 01:40:00,
2013-02-03 20:50:00,61.9,43.6,29.75,NNE,22,13.6,21.0,51,0.00,,---,0.00,VWS V13.01,2013-02-04 01:50:00,
2013-02-03 20:55:00,61.9,43.6,29.76,NNE,22,0.0,13.6,51,0.00,,---,0.00,VWS V13.01,2013-02-04 01:55:00,
2013-02-03 21:05:00,61.7,43.4,29.76,NNE,22,0.0,11.2,51,0.00,,---,0.00,VWS V13.01,2013-02-04 02:05:00,
2013-02-03 21:15:00,61.3,44.1,29.76,NNE,22,0.0,12.5,53,0.00,,---,0.00,VWS V13.01,2013-02-04 02:15:00,
2013-02-03 21:20:00,61.3,44.1,29.76,NNE,22,0.0,0.0,53,0.00,,---,0.00,VWS V13.01,2013-02-04 02:20:00,
2013-02-03 21:30:00,60.6,43.9,29.76,NNE,22,0.0,0.0,54,0.00,,---,0.00,VWS V13.01,2013-02-04 02:30:00,
2013-02-03 21:35:00,60.6,43.9,29.76,NNE,22,0.0,0.0,54,0.00,,---,0.00,VWS V13.01,2013-02-04 02:35:00,
2013-02-03 21:45:00,60.4,44.2,29.76,NNE,22,0.0,11.2,55,0.00,,---,0.00,VWS V13.01,2013-02-04 02:45:00,
2013-02-03 21:55:00,60.1,44.3,29.76,NNE,22,0.0,0.0,56,0.00,,---,0.00,VWS V13.01,2013-02-04 02:55:00,
2013-02-03 22:00:00,60.1,44.3,29.76,NNE,22,16.8,16.8,56,0.00,,---,0.00,VWS V13.01,2013-02-04 03:00:00,
2013-02-03 22:10:00,59.7,44.5,29.76,NNE,22,0.0,0.0,57,0.00,,---,0.00,VWS V13.01,2013-02-04 03:10:00,
2013-02-03 22:15:00,59.7,44.5,29.76,NNE,22,0.0,0.0,57,0.00,,---,0.00,VWS V13.01,2013-02-04 03:15:00,
2013-02-03 22:25:00,58.8,43.6,29.76,NNE,22,0.0,0.0,57,0.00,,---,0.00,VWS V13.01,2013-02-04 03:25:00,
2013-02-03 22:30:00,58.8,43.6,29.76,NNE,22,0.0,0.0,57,0.00,,---,0.00,VWS V13.01,2013-02-04 03:30:00,
2013-02-03 22:35:00,58.8,43.6,29.76,NNE,22,0.0,0.0,57,0.00,,---,0.00,VWS V13.01,2013-02-04 03:35:00,
2013-02-03 22:45:00,58.8,44.1,29.76,NNE,22,0.0,0.0,58,0.00,,---,0.00,VWS V13.01,2013-02-04 03:45:00,
2013-02-03 22:50:00,58.8,44.1,29.76,NNE,22,0.0,0.0,58,0.00,,---,0.00,VWS V13.01,2013-02-04 03:50:00,
2013-02-03 22:55:00,58.6,44.4,29.76,NNE,22,0.0,0.0,59,0.00,,---,0.00,VWS V13.01,2013-02-04 03:55:00,
2013-02-03 23:05:00,58.3,44.0,29.76,NNE,22,0.0,0.0,59,0.00,,---,0.00,VWS V13.01,2013-02-04 04:05:00,
2013-02-03 23:15:00,58.1,43.9,29.76,NNE,22,0.0,1.6,59,0.00,,---,0.00,VWS V13.01,2013-02-04 04:15:00,
2013-02-03 23:20:00,57.9,43.2,29.76,NNE,22,1.1,10.5,58,0.00,,---,0.00,VWS V13.01,2013-02-04 04:20:00,
2013-02-03 23:30:00,57.7,43.1,29.75,NNE,22,0.4,6.0,58,0.00,,---,0.00,VWS V13.01,2013-02-04 04:30:00,
2013-02-03 23:40:00,57.9,43.2,29.75,NNE,22,0.0,18.3,58,0.00,,---,0.00,VWS V13.01,2013-02-04 04:40:00,
2013-02-03 23:45:00,58.1,43.9,29.76,NNE,22,0.2,0.2,59,0.00,,---,0.00,VWS V13.01,2013-02-04 04:45:00,
2013-02-03 23:55:00,58.5,43.8,29.75,NNE,22,0.0,12.8,58,0.00,,---,0.00,VWS V13.01,2013-02-04 04:55:00,